EWG87U EDDL-LFKB

Flight info

Callsign EWG87U
Flight time 1h 32m
Altitude 39000
Route DODEN1T DODEN Y852 NATOR DCT TRA DCT RIPUS DCT GERSA DCT SOSON DCT ODINA DCT EVANO DCT OLETI M858 LIGUR
Aircraft A319/M-SDE3FGHIRWY/LB1

Departure

Time 2026-05-07 09:26
Airport Düsseldorf Airport (EDDL)

Arrival

Time 2026-05-07 10:58
Airport Bastia-Poretta International airport (LFKB)
Time Latitude Longitude Altitude Speed Heading
2026-05-07 08:46 51.28015 6.76420 129 ft 0 kts 208°
2026-05-07 09:12 51.28020 6.76424 126 ft 2 kts 206°
2026-05-07 09:12 51.28035 6.76435 127 ft 2 kts 202°
2026-05-07 09:12 51.28045 6.76441 125 ft 2 kts 194°
2026-05-07 09:13 51.28061 6.76445 124 ft 2 kts 170°
2026-05-07 09:13 51.28077 6.76436 125 ft 2 kts 142°
2026-05-07 09:13 51.28091 6.76423 123 ft 2 kts 162°
2026-05-07 09:13 51.28107 6.76417 122 ft 2 kts 176°
2026-05-07 09:14 51.28123 6.76417 126 ft 2 kts 187°
2026-05-07 09:14 51.28139 6.76421 125 ft 2 kts 188°
2026-05-07 09:14 51.28155 6.76425 126 ft 2 kts 189°
2026-05-07 09:14 51.28171 6.76429 128 ft 2 kts 188°
2026-05-07 09:15 51.28188 6.76433 125 ft 2 kts 177°
2026-05-07 09:15 51.28202 6.76422 124 ft 2 kts 133°
2026-05-07 09:15 51.28210 6.76400 123 ft 2 kts 100°
2026-05-07 09:15 51.28211 6.76380 124 ft 1 kts 56°
2026-05-07 09:17 51.28219 6.76397 123 ft 3 kts 53°
2026-05-07 09:18 51.28238 6.76439 124 ft 6 kts 54°
2026-05-07 09:18 51.28271 6.76496 125 ft 8 kts 32°
2026-05-07 09:18 51.28333 6.76478 122 ft 8 kts 355°
2026-05-07 09:18 51.28383 6.76554 125 ft 14 kts 53°
2026-05-07 09:19 51.28452 6.76698 126 ft 18 kts 52°
2026-05-07 09:19 51.28529 6.76866 128 ft 19 kts 51°
2026-05-07 09:19 51.28617 6.77044 128 ft 22 kts 53°
2026-05-07 09:19 51.28713 6.77247 129 ft 24 kts 52°
2026-05-07 09:20 51.28822 6.77475 127 ft 27 kts 53°
2026-05-07 09:20 51.28942 6.77727 128 ft 28 kts 52°
2026-05-07 09:20 51.29058 6.77967 128 ft 29 kts 52°
2026-05-07 09:20 51.29180 6.78228 137 ft 29 kts 51°
2026-05-07 09:21 51.29250 6.78374 143 ft 7 kts 52°
2026-05-07 09:21 51.29278 6.78432 146 ft 6 kts 52°
2026-05-07 09:21 51.29303 6.78484 148 ft 6 kts 53°
2026-05-07 09:21 51.29333 6.78544 150 ft 6 kts 44°
2026-05-07 09:22 51.29363 6.78569 152 ft 2 kts 16°
2026-05-07 09:22 51.29370 6.78570 152 ft 0 kts 11°
2026-05-07 09:23 51.29388 6.78574 152 ft 5 kts
2026-05-07 09:23 51.29431 6.78569 152 ft 8 kts 355°
2026-05-07 09:23 51.29444 6.78567 152 ft 0 kts 355°
2026-05-07 09:23 51.29470 6.78563 152 ft 7 kts 355°
2026-05-07 09:24 51.29537 6.78554 153 ft 9 kts 352°
2026-05-07 09:24 51.29526 6.78482 151 ft 0 kts 232°
2026-05-07 09:25 51.29453 6.78331 147 ft 47 kts 233°
2026-05-07 09:26 51.29124 6.77638 128 ft 109 kts 233°
2026-05-07 09:26 51.28550 6.76429 145 ft 160 kts 233°
2026-05-07 09:26 51.27895 6.75023 772 ft 158 kts 235°
2026-05-07 09:26 51.27231 6.73576 1436 ft 162 kts 236°
2026-05-07 09:27 51.26526 6.72039 1802 ft 183 kts 237°
2026-05-07 09:27 51.25720 6.70295 2185 ft 207 kts 235°
2026-05-07 09:27 51.23799 6.66189 3192 ft 256 kts 234°
2026-05-07 09:28 51.22478 6.64169 4015 ft 271 kts 208°
2026-05-07 09:28 51.20629 6.63574 5028 ft 276 kts 176°
2026-05-07 09:28 51.18727 6.63850 6094 ft 277 kts 173°
2026-05-07 09:28 51.16806 6.64212 7127 ft 279 kts 168°
2026-05-07 09:29 51.15015 6.65450 8055 ft 283 kts 142°
2026-05-07 09:29 51.13706 6.67795 8960 ft 286 kts 117°
2026-05-07 09:29 51.13139 6.70783 9870 ft 289 kts 92°
2026-05-07 09:29 51.13203 6.74033 10471 ft 304 kts 85°
2026-05-07 09:30 51.13343 6.77512 10825 ft 325 kts 85°
2026-05-07 09:30 51.13493 6.81161 11497 ft 333 kts 85°
2026-05-07 09:30 51.13640 6.84895 12227 ft 339 kts 85°
2026-05-07 09:30 51.13782 6.88645 12986 ft 344 kts 86°
2026-05-07 09:31 51.13923 6.92438 13775 ft 348 kts 86°
2026-05-07 09:31 51.14065 6.96328 14455 ft 352 kts 86°
2026-05-07 09:31 51.14205 7.00253 15144 ft 356 kts 86°
2026-05-07 09:31 51.14345 7.04229 15844 ft 360 kts 86°
2026-05-07 09:32 51.14482 7.08175 16516 ft 363 kts 86°
2026-05-07 09:32 51.14624 7.12227 17210 ft 367 kts 86°
2026-05-07 09:32 51.14765 7.16312 17923 ft 370 kts 86°
2026-05-07 09:32 51.14908 7.20446 18579 ft 373 kts 85°
2026-05-07 09:33 51.15047 7.24549 19194 ft 376 kts 86°
2026-05-07 09:33 51.15187 7.28743 19802 ft 379 kts 85°
2026-05-07 09:33 51.15329 7.32980 20402 ft 383 kts 85°
2026-05-07 09:33 51.15387 7.37255 21020 ft 386 kts 92°
2026-05-07 09:34 51.14964 7.41463 21579 ft 391 kts 104°
2026-05-07 09:34 51.13983 7.45563 22133 ft 396 kts 117°
2026-05-07 09:34 51.12515 7.49229 22703 ft 399 kts 129°
2026-05-07 09:34 51.10587 7.52454 23294 ft 402 kts 136°
2026-05-07 09:35 51.08580 7.55507 23840 ft 404 kts 136°
2026-05-07 09:35 51.06528 7.58632 24306 ft 408 kts 136°
2026-05-07 09:35 51.04458 7.61787 24792 ft 410 kts 136°
2026-05-07 09:35 51.02416 7.64898 25263 ft 412 kts 136°
2026-05-07 09:36 51.00333 7.68066 25705 ft 416 kts 136°
2026-05-07 09:36 50.98228 7.71262 26147 ft 419 kts 136°
2026-05-07 09:36 50.95984 7.74247 26653 ft 421 kts 144°
2026-05-07 09:36 50.93528 7.76746 27076 ft 424 kts 148°
2026-05-07 09:37 50.91006 7.79229 27586 ft 425 kts 148°
2026-05-07 09:37 50.88497 7.81693 28086 ft 426 kts 148°
2026-05-07 09:37 50.85966 7.84176 28548 ft 429 kts 148°
2026-05-07 09:37 50.83414 7.86678 28968 ft 433 kts 148°
2026-05-07 09:38 50.80858 7.89188 29351 ft 436 kts 148°
2026-05-07 09:38 50.78268 7.91730 29833 ft 438 kts 148°
2026-05-07 09:38 50.75673 7.94275 30225 ft 441 kts 148°
2026-05-07 09:38 50.73052 7.96842 30518 ft 445 kts 148°
2026-05-07 09:39 50.70436 7.99400 30872 ft 447 kts 148°
2026-05-07 09:39 50.67779 8.01987 31216 ft 449 kts 148°
2026-05-07 09:39 50.65119 8.04574 31542 ft 451 kts 148°
2026-05-07 09:39 50.62386 8.07005 31961 ft 451 kts 155°
2026-05-07 09:40 50.59448 8.08775 32384 ft 450 kts 165°
2026-05-07 09:40 50.56433 8.09787 32816 ft 448 kts 173°
2026-05-07 09:40 50.53318 8.10237 33245 ft 447 kts 176°
2026-05-07 09:40 50.50211 8.10643 33701 ft 447 kts 176°
2026-05-07 09:41 50.47131 8.11046 34136 ft 446 kts 176°
2026-05-07 09:41 50.44035 8.11451 34518 ft 445 kts 176°
2026-05-07 09:41 50.40951 8.11854 34889 ft 444 kts 176°
2026-05-07 09:41 50.37875 8.12255 35243 ft 443 kts 176°
2026-05-07 09:42 50.34831 8.12655 35585 ft 443 kts 176°
2026-05-07 09:42 50.31761 8.13061 35920 ft 442 kts 176°
2026-05-07 09:42 50.28694 8.13464 36253 ft 441 kts 176°
2026-05-07 09:42 50.25621 8.13861 36576 ft 441 kts 176°
2026-05-07 09:43 50.22564 8.14251 36894 ft 440 kts 176°
2026-05-07 09:43 50.19547 8.14636 37196 ft 440 kts 176°
2026-05-07 09:43 50.16474 8.15028 37507 ft 440 kts 176°
2026-05-07 09:43 50.13430 8.15421 37799 ft 439 kts 176°
2026-05-07 09:44 50.10404 8.15825 38080 ft 439 kts 176°
2026-05-07 09:44 50.07366 8.16243 38356 ft 439 kts 176°
2026-05-07 09:44 50.04285 8.16675 38630 ft 438 kts 176°
2026-05-07 09:44 50.01288 8.17100 38851 ft 438 kts 176°
2026-05-07 09:45 49.98239 8.17535 38990 ft 439 kts 176°
2026-05-07 09:45 49.92147 8.18392 39030 ft 440 kts 176°
2026-05-07 09:46 49.86046 8.19233 39015 ft 440 kts 176°
2026-05-07 09:46 49.79917 8.20077 39022 ft 440 kts 176°
2026-05-07 09:47 49.73851 8.20917 39020 ft 440 kts 176°
2026-05-07 09:47 49.67752 8.21759 39024 ft 440 kts 176°
2026-05-07 09:48 49.61635 8.22610 39029 ft 440 kts 176°
2026-05-07 09:48 49.55553 8.23443 39032 ft 441 kts 176°
2026-05-07 09:49 49.49417 8.24265 39027 ft 441 kts 176°
2026-05-07 09:49 49.43298 8.25097 39028 ft 441 kts 176°
2026-05-07 09:50 49.37216 8.25922 39031 ft 441 kts 176°
2026-05-07 09:50 49.31094 8.26751 39032 ft 440 kts 176°
2026-05-07 09:51 49.25015 8.27572 39036 ft 440 kts 176°
2026-05-07 09:51 49.18900 8.28399 39028 ft 440 kts 176°
2026-05-07 09:52 49.12817 8.29215 39034 ft 440 kts 176°
2026-05-07 09:52 49.06717 8.30037 39040 ft 440 kts 176°
2026-05-07 09:53 49.00587 8.30854 39047 ft 440 kts 176°
2026-05-07 09:53 48.94486 8.31381 39051 ft 439 kts 181°
2026-05-07 09:54 48.88384 8.31378 39054 ft 439 kts 182°
2026-05-07 09:54 48.82285 8.31302 39060 ft 439 kts 182°
2026-05-07 09:55 48.76158 8.31337 39056 ft 439 kts 181°
2026-05-07 09:55 48.70064 8.31442 39058 ft 439 kts 181°
2026-05-07 09:56 48.63975 8.31542 39056 ft 439 kts 181°
2026-05-07 09:56 48.57852 8.31611 39057 ft 439 kts 181°
2026-05-07 09:57 48.51730 8.31679 39057 ft 439 kts 181°
2026-05-07 09:57 48.45652 8.31755 39048 ft 439 kts 181°
2026-05-07 09:58 48.39539 8.31837 39052 ft 439 kts 181°
2026-05-07 09:58 48.34461 8.31898 39047 ft 439 kts 181°
2026-05-07 09:59 48.27352 8.31981 39048 ft 439 kts 181°
2026-05-07 09:59 48.22271 8.32049 39053 ft 438 kts 181°
2026-05-07 10:00 48.16150 8.32335 39037 ft 440 kts 174°
2026-05-07 10:00 48.10076 8.33800 39046 ft 441 kts 173°
2026-05-07 10:01 48.04012 8.35265 39051 ft 441 kts 173°
2026-05-07 10:01 47.97980 8.36729 39055 ft 441 kts 173°
2026-05-07 10:02 47.91922 8.38188 39057 ft 441 kts 173°
2026-05-07 10:02 47.85870 8.39643 39048 ft 441 kts 173°
2026-05-07 10:03 47.79799 8.41096 39055 ft 442 kts 173°
2026-05-07 10:03 47.73712 8.42553 39059 ft 442 kts 173°
2026-05-07 10:04 47.67634 8.43970 39054 ft 441 kts 175°
2026-05-07 10:04 47.61534 8.44981 39065 ft 440 kts 177°
2026-05-07 10:05 47.55468 8.45751 39069 ft 440 kts 178°
2026-05-07 10:05 47.49363 8.46553 39071 ft 440 kts 177°
2026-05-07 10:06 47.43253 8.47446 39069 ft 440 kts 177°
2026-05-07 10:06 47.37192 8.48362 39071 ft 440 kts 177°
2026-05-07 10:07 47.31099 8.49252 39072 ft 440 kts 177°
2026-05-07 10:07 47.25036 8.50135 39065 ft 439 kts 177°
2026-05-07 10:08 47.18935 8.51023 39065 ft 439 kts 177°
2026-05-07 10:08 47.12862 8.51904 39065 ft 439 kts 177°
2026-05-07 10:09 47.06781 8.52793 39050 ft 440 kts 177°
2026-05-07 10:09 47.00689 8.53691 39051 ft 439 kts 178°
2026-05-07 10:10 46.94597 8.54569 39058 ft 439 kts 178°
2026-05-07 10:10 46.88505 8.55437 39058 ft 439 kts 178°
2026-05-07 10:11 46.82438 8.56310 39054 ft 440 kts 178°
2026-05-07 10:11 46.76350 8.57187 39048 ft 439 kts 178°
2026-05-07 10:12 46.70270 8.58051 39042 ft 438 kts 178°
2026-05-07 10:12 46.64193 8.58912 39030 ft 438 kts 178°
2026-05-07 10:13 46.58150 8.59779 39031 ft 438 kts 178°
2026-05-07 10:13 46.52081 8.60644 39035 ft 438 kts 178°
2026-05-07 10:14 46.45990 8.61501 39027 ft 439 kts 178°
2026-05-07 10:14 46.39905 8.62360 39026 ft 439 kts 178°
2026-05-07 10:15 46.33853 8.63219 39028 ft 439 kts 178°
2026-05-07 10:15 46.27748 8.64073 39022 ft 438 kts 179°
2026-05-07 10:16 46.21695 8.64907 39019 ft 438 kts 179°
2026-05-07 10:16 46.15630 8.65752 39026 ft 439 kts 178°
2026-05-07 10:17 46.09526 8.66614 39033 ft 440 kts 179°
2026-05-07 10:17 46.03457 8.67413 39015 ft 439 kts 179°
2026-05-07 10:18 45.97729 8.68117 39018 ft 439 kts 179°
2026-05-07 10:18 45.91656 8.68864 39024 ft 440 kts 179°
2026-05-07 10:19 45.85549 8.69631 39022 ft 440 kts 179°
2026-05-07 10:19 45.79433 8.70402 39021 ft 439 kts 179°
2026-05-07 10:20 45.73384 8.71153 39029 ft 438 kts 179°
2026-05-07 10:20 45.67281 8.71919 39044 ft 438 kts 179°
2026-05-07 10:21 45.61247 8.72671 39035 ft 437 kts 179°
2026-05-07 10:21 45.55172 8.73420 39040 ft 437 kts 179°
2026-05-07 10:22 45.49116 8.74173 39040 ft 437 kts 179°
2026-05-07 10:22 45.43055 8.74931 38998 ft 437 kts 179°
2026-05-07 10:23 45.37020 8.75681 39004 ft 436 kts 180°
2026-05-07 10:23 45.30945 8.76463 39007 ft 437 kts 179°
2026-05-07 10:24 45.24936 8.77466 39012 ft 437 kts 177°
2026-05-07 10:24 45.18872 8.78560 39025 ft 437 kts 178°
2026-05-07 10:25 45.12865 8.79586 39029 ft 437 kts 178°
2026-05-07 10:25 45.06796 8.80561 39031 ft 437 kts 179°
2026-05-07 10:26 45.00773 8.81532 39022 ft 437 kts 178°
2026-05-07 10:26 44.94742 8.82524 39002 ft 437 kts 178°
2026-05-07 10:27 44.88682 8.83535 39008 ft 437 kts 178°
2026-05-07 10:27 44.85687 8.84031 38810 ft 436 kts 178°
2026-05-07 10:27 44.82640 8.84528 38206 ft 438 kts 178°
2026-05-07 10:27 44.79642 8.85012 37630 ft 438 kts 179°
2026-05-07 10:28 44.76589 8.85504 37043 ft 438 kts 179°
2026-05-07 10:28 44.73551 8.85996 36342 ft 441 kts 179°
2026-05-07 10:28 44.70484 8.86491 35699 ft 442 kts 179°
2026-05-07 10:28 44.67485 8.86981 35304 ft 437 kts 180°
2026-05-07 10:29 44.64475 8.87477 34805 ft 434 kts 180°
2026-05-07 10:29 44.61482 8.87972 34368 ft 430 kts 181°
2026-05-07 10:29 44.58506 8.88459 33888 ft 427 kts 181°
2026-05-07 10:30 44.52676 8.89412 32935 ft 419 kts 181°
2026-05-07 10:30 44.49784 8.89880 32463 ft 415 kts 181°
2026-05-07 10:30 44.46916 8.90340 32004 ft 411 kts 181°
2026-05-07 10:30 44.44106 8.90790 31553 ft 408 kts 181°
2026-05-07 10:31 44.41284 8.91244 31101 ft 404 kts 181°
2026-05-07 10:31 44.38493 8.91695 30659 ft 400 kts 181°
2026-05-07 10:31 44.35768 8.92134 30230 ft 396 kts 182°
2026-05-07 10:31 44.33022 8.92575 29752 ft 393 kts 181°
2026-05-07 10:32 44.30340 8.93008 29339 ft 387 kts 181°
2026-05-07 10:32 44.27691 8.93434 28912 ft 383 kts 181°
2026-05-07 10:32 44.25051 8.93861 28509 ft 378 kts 181°
2026-05-07 10:32 44.22433 8.94284 28134 ft 374 kts 181°
2026-05-07 10:33 44.19891 8.94694 27758 ft 371 kts 181°
2026-05-07 10:33 44.17341 8.95102 27384 ft 367 kts 181°
2026-05-07 10:33 44.14804 8.95505 27012 ft 364 kts 181°
2026-05-07 10:33 44.12291 8.95903 26642 ft 360 kts 181°
2026-05-07 10:34 44.09840 8.96291 26282 ft 357 kts 181°
2026-05-07 10:34 44.07389 8.96678 25924 ft 353 kts 181°
2026-05-07 10:34 44.04944 8.97067 25540 ft 349 kts 180°
2026-05-07 10:34 44.02534 8.97451 25168 ft 346 kts 180°
2026-05-07 10:35 44.00173 8.97822 24796 ft 344 kts 180°
2026-05-07 10:35 43.97788 8.98196 24410 ft 342 kts 180°
2026-05-07 10:35 43.95423 8.98569 24032 ft 340 kts 180°
2026-05-07 10:35 43.93090 8.98942 23644 ft 339 kts 180°
2026-05-07 10:36 43.90732 8.99319 23201 ft 337 kts 180°
2026-05-07 10:36 43.88429 8.99689 22811 ft 334 kts 179°
2026-05-07 10:36 43.86133 9.00055 22402 ft 331 kts 179°
2026-05-07 10:36 43.83851 9.00415 22026 ft 328 kts 179°
2026-05-07 10:37 43.81604 9.00749 21635 ft 325 kts 182°
2026-05-07 10:37 43.79363 9.00676 21246 ft 318 kts 190°
2026-05-07 10:37 43.77163 9.00406 20862 ft 317 kts 190°
2026-05-07 10:37 43.74964 9.00145 20474 ft 315 kts 189°
2026-05-07 10:38 43.72778 8.99891 20087 ft 314 kts 189°
2026-05-07 10:38 43.70618 8.99642 19717 ft 313 kts 189°
2026-05-07 10:38 43.68435 8.99392 19332 ft 313 kts 189°
2026-05-07 10:38 43.66281 8.99143 18947 ft 312 kts 189°
2026-05-07 10:39 43.64106 8.98892 18569 ft 311 kts 188°
2026-05-07 10:39 43.61966 8.98639 18171 ft 311 kts 188°
2026-05-07 10:39 43.59799 8.98384 17766 ft 310 kts 188°
2026-05-07 10:39 43.57655 8.98134 17376 ft 308 kts 188°
2026-05-07 10:40 43.55521 8.97885 17010 ft 306 kts 188°
2026-05-07 10:40 43.53394 8.97638 16629 ft 305 kts 188°
2026-05-07 10:40 43.51315 8.97386 16256 ft 304 kts 188°
2026-05-07 10:40 43.49198 8.97123 15876 ft 303 kts 188°
2026-05-07 10:41 43.47333 8.96889 15538 ft 302 kts 188°
2026-05-07 10:41 43.45267 8.96631 15175 ft 301 kts 188°
2026-05-07 10:41 43.43173 8.96372 14800 ft 300 kts 188°
2026-05-07 10:41 43.41096 8.96115 14427 ft 299 kts 188°
2026-05-07 10:42 43.39018 8.95859 14058 ft 298 kts 188°
2026-05-07 10:42 43.36962 8.95610 13787 ft 305 kts 188°
2026-05-07 10:42 43.34824 8.95362 13525 ft 308 kts 188°
2026-05-07 10:42 43.32712 8.95124 13275 ft 307 kts 187°
2026-05-07 10:43 43.30572 8.94888 13021 ft 306 kts 187°
2026-05-07 10:43 43.28437 8.94656 12769 ft 305 kts 187°
2026-05-07 10:43 43.26352 8.94455 12518 ft 304 kts 183°
2026-05-07 10:43 43.24249 8.94888 12270 ft 307 kts 164°
2026-05-07 10:44 43.22952 8.95674 12096 ft 309 kts 152°
2026-05-07 10:44 43.20840 8.98300 11763 ft 313 kts 127°
2026-05-07 10:44 43.20066 8.99978 11607 ft 313 kts 123°
2026-05-07 10:44 43.18927 9.02535 11349 ft 312 kts 123°
2026-05-07 10:45 43.17426 9.05894 11012 ft 310 kts 123°
2026-05-07 10:45 43.16677 9.07563 10847 ft 309 kts 123°
2026-05-07 10:45 43.15552 9.10070 10600 ft 308 kts 123°
2026-05-07 10:45 43.14435 9.12562 10355 ft 306 kts 123°
2026-05-07 10:46 43.13322 9.15043 10110 ft 302 kts 123°
2026-05-07 10:46 43.12226 9.17479 9855 ft 298 kts 123°
2026-05-07 10:46 43.11154 9.19859 9605 ft 296 kts 123°
2026-05-07 10:46 43.10073 9.22257 9349 ft 295 kts 123°
2026-05-07 10:47 43.08995 9.24642 9106 ft 294 kts 123°
2026-05-07 10:47 43.07918 9.27021 8870 ft 293 kts 123°
2026-05-07 10:47 43.06855 9.29373 8634 ft 292 kts 123°
2026-05-07 10:47 43.05784 9.31741 8400 ft 291 kts 123°
2026-05-07 10:48 43.04732 9.34067 8162 ft 289 kts 123°
2026-05-07 10:48 43.03679 9.36399 7938 ft 288 kts 123°
2026-05-07 10:48 43.02627 9.38727 7699 ft 287 kts 123°
2026-05-07 10:48 43.01580 9.41041 7468 ft 286 kts 123°
2026-05-07 10:49 43.00540 9.43339 7238 ft 284 kts 123°
2026-05-07 10:49 42.99494 9.45645 7007 ft 283 kts 123°
2026-05-07 10:49 42.98468 9.47910 6771 ft 282 kts 122°
2026-05-07 10:49 42.97432 9.50187 6550 ft 282 kts 123°
2026-05-07 10:50 42.96400 9.52450 6317 ft 280 kts 123°
2026-05-07 10:50 42.95387 9.54672 6169 ft 270 kts 123°
2026-05-07 10:50 42.94415 9.56802 6036 ft 261 kts 123°
2026-05-07 10:50 42.93245 9.58613 5906 ft 251 kts 147°
2026-05-07 10:51 42.91669 9.59500 5763 ft 242 kts 174°
2026-05-07 10:51 42.90015 9.59380 5619 ft 237 kts 196°
2026-05-07 10:51 42.88432 9.58794 5436 ft 237 kts 197°
2026-05-07 10:51 42.86835 9.58204 5255 ft 237 kts 197°
2026-05-07 10:52 42.85237 9.57618 5061 ft 236 kts 198°
2026-05-07 10:52 42.83749 9.56793 4808 ft 234 kts 208°
2026-05-07 10:52 42.82279 9.55806 4480 ft 233 kts 209°
2026-05-07 10:52 42.80840 9.54835 4176 ft 233 kts 207°
2026-05-07 10:53 42.79388 9.53854 3860 ft 232 kts 207°
2026-05-07 10:53 42.77942 9.52881 3562 ft 231 kts 207°
2026-05-07 10:53 42.76507 9.51919 3261 ft 230 kts 206°
2026-05-07 10:53 42.75067 9.50952 2942 ft 229 kts 206°
2026-05-07 10:54 42.73634 9.49990 2661 ft 228 kts 206°
2026-05-07 10:54 42.72260 9.49069 2508 ft 216 kts 206°
2026-05-07 10:54 42.70963 9.48201 2499 ft 199 kts 206°
2026-05-07 10:54 42.69752 9.47389 2503 ft 190 kts 206°
2026-05-07 10:55 42.68541 9.46684 2505 ft 187 kts 193°
2026-05-07 10:55 42.67272 9.46569 2363 ft 185 kts 176°
2026-05-07 10:55 42.65992 9.46670 2037 ft 182 kts 176°
2026-05-07 10:55 42.64761 9.46760 1769 ft 169 kts 176°
2026-05-07 10:56 42.63653 9.46839 1539 ft 149 kts 176°
2026-05-07 10:56 42.62685 9.46906 1346 ft 135 kts 175°
2026-05-07 10:56 42.61766 9.46967 1132 ft 127 kts 174°
2026-05-07 10:56 42.60904 9.47027 877 ft 123 kts 174°
2026-05-07 10:57 42.60024 9.47069 751 ft 125 kts 175°
2026-05-07 10:57 42.59136 9.47090 633 ft 131 kts 175°
2026-05-07 10:57 42.58216 9.47210 472 ft 133 kts 168°
2026-05-07 10:57 42.57334 9.47491 277 ft 128 kts 160°
2026-05-07 10:58 42.56492 9.47858 95 ft 126 kts 160°
2026-05-07 10:58 42.55707 9.48190 28 ft 101 kts 163°
2026-05-07 10:58 42.55210 9.48396 37 ft 44 kts 163°
2026-05-07 10:58 42.55037 9.48468 37 ft 9 kts 163°
2026-05-07 10:59 42.54988 9.48429 36 ft 11 kts 250°
2026-05-07 10:59 42.54966 9.48331 34 ft 8 kts 252°
2026-05-07 10:59 42.54942 9.48256 34 ft 9 kts 225°
2026-05-07 10:59 42.54878 9.48258 33 ft 8 kts 164°
2026-05-07 11:00 42.54844 9.48232 35 ft 7 kts 257°
2026-05-07 11:00 42.54833 9.48173 34 ft 4 kts 252°
2026-05-07 11:00 42.54830 9.48164 35 ft 0 kts 252°